Location: ??
(35.4032°N, 139.3073°E)
Time: 05:27:14
(UTC+00:00)

ALOS - Visible Passes

Search period start: 13 July 2024 00:00
Search period end: 23 July 2024 00:00
Orbit: 672 x 676 km, 98.0° (Epoch: 12 July)

Date Brightness Start Highest point End Pass type
(mag) Time Alt. Az. Time Alt. Az. Time Alt. Az.
13 Jul 2.2 17:36:23 10° N 17:40:58 68° WNW 17:42:20 44° SW visible
14 Jul 4.0 16:33:57 10° NE 16:37:37 23° E 16:38:19 22° ESE visible
14 Jul 3.3 18:10:47 10° NNW 18:14:44 29° WNW 18:16:36 22° WSW visible
15 Jul 2.7 17:07:07 10° NNE 17:11:39 55° E 17:12:34 46° SE visible
15 Jul 4.3 18:46:15 10° NW 18:48:19 13° WNW 18:50:22 10° W visible
16 Jul 4.9 16:07:00 10° ENE 16:08:01 11° E 16:08:32 10° E visible
16 Jul 2.3 17:40:58 10° N 17:45:32 60° WNW 17:46:49 43° SW visible
17 Jul 3.8 16:38:20 10° NE 16:42:11 26° E 16:42:46 25° ESE visible
17 Jul 3.5 18:15:27 10° NNW 18:19:15 26° WNW 18:21:03 20° WSW visible
18 Jul 2.5 17:11:37 10° NNE 17:16:11 63° E 17:17:00 53° SSE visible
18 Jul 4.3 18:51:16 10° NW 18:52:47 11° WNW 18:54:17 10° W visible
19 Jul 4.8 16:10:44 10° ENE 16:12:35 12° E 16:12:57 12° E visible
19 Jul 2.4 17:45:32 10° N 17:50:01 53° WNW 17:51:13 41° WSW visible
20 Jul 3.7 16:42:41 10° NE 16:46:42 29° E 16:47:10 28° ESE visible
20 Jul 3.6 18:20:04 10° NNW 18:23:42 23° WNW 18:25:26 19° W visible
21 Jul 2.3 17:16:03 10° NNE 17:20:40 71° ESE 17:21:22 59° SSE visible
21 Jul 4.4 18:56:43 10° WNW 18:57:12 10° WNW 18:57:40 10° WNW visible
22 Jul 4.7 16:14:43 10° ENE 16:17:05 14° E 16:17:18 14° E visible
22 Jul 2.6 17:50:02 10° N 17:54:28 47° WNW 17:55:35 39° WSW visible
